Year,Month,Day,Hour,Minute,Value (Times are PST for temperature in C)
2015,06,10,00,00,10.80
2015,06,10,00,01,10.80
2015,06,10,00,02,10.80
2015,06,10,00,03,10.80
2015,06,10,00,04,10.70
2015,06,10,00,05,10.70
2015,06,10,00,06,10.70
2015,06,10,00,07,10.70
2015,06,10,00,08,10.70
2015,06,10,00,09,10.70
2015,06,10,00,10,10.70
2015,06,10,00,11,10.70
2015,06,10,00,12,10.70
2015,06,10,00,13,10.60
2015,06,10,00,14,10.60
2015,06,10,00,15,10.60
2015,06,10,00,16,10.60
2015,06,10,00,17,10.60
2015,06,10,00,18,10.50
2015,06,10,00,19,10.50
2015,06,10,00,20,10.50
2015,06,10,00,21,10.50
2015,06,10,00,22,10.50
2015,06,10,00,23,10.50
2015,06,10,00,24,10.40
2015,06,10,00,25,10.40
2015,06,10,00,26,10.40
2015,06,10,00,27,10.40
2015,06,10,00,28,10.40
2015,06,10,00,29,10.30
2015,06,10,00,30,10.30
2015,06,10,00,31,10.30
2015,06,10,00,32,10.30
2015,06,10,00,33,10.30
2015,06,10,00,34,10.30
2015,06,10,00,35,10.20
2015,06,10,00,36,10.20
2015,06,10,00,37,10.20
2015,06,10,00,38,10.20
2015,06,10,00,39,10.20
2015,06,10,00,40,10.20
2015,06,10,00,41,10.20
2015,06,10,00,42,10.10
2015,06,10,00,43,10.10
2015,06,10,00,44,10.10
2015,06,10,00,45,10.10
2015,06,10,00,46,10.10
2015,06,10,00,47,10.00
2015,06,10,00,48,10.00
2015,06,10,00,49,10.00
2015,06,10,00,50,9.90
2015,06,10,00,51,9.90
2015,06,10,00,52,9.90
2015,06,10,00,53,9.90
2015,06,10,00,54,9.80
2015,06,10,00,55,9.80
2015,06,10,00,56,9.80
2015,06,10,00,57,9.70
2015,06,10,00,58,9.70
2015,06,10,00,59,9.70
2015,06,10,01,00,9.70
2015,06,10,01,01,9.60
2015,06,10,01,02,9.60
2015,06,10,01,03,9.60
2015,06,10,01,04,9.60
2015,06,10,01,05,9.50
2015,06,10,01,06,9.50
2015,06,10,01,07,9.50
2015,06,10,01,08,9.50
2015,06,10,01,09,9.40
2015,06,10,01,10,9.40
2015,06,10,01,11,9.40
2015,06,10,01,12,9.40
2015,06,10,01,13,9.40
2015,06,10,01,14,9.40
2015,06,10,01,15,9.30
2015,06,10,01,16,9.30
2015,06,10,01,17,9.30
2015,06,10,01,18,9.30
2015,06,10,01,19,9.30
2015,06,10,01,20,9.30
2015,06,10,01,21,9.30
2015,06,10,01,22,9.30
2015,06,10,01,23,9.30
2015,06,10,01,24,9.30
2015,06,10,01,25,9.30
2015,06,10,01,26,9.20
2015,06,10,01,27,9.30
2015,06,10,01,28,9.30
2015,06,10,01,29,9.30
2015,06,10,01,30,9.30
2015,06,10,01,31,9.20
2015,06,10,01,32,9.20
2015,06,10,01,33,9.20
2015,06,10,01,34,9.20
2015,06,10,01,35,9.20
2015,06,10,01,36,9.20
2015,06,10,01,37,9.20
2015,06,10,01,38,9.20
2015,06,10,01,39,9.20
2015,06,10,01,40,9.20
2015,06,10,01,41,9.20
2015,06,10,01,42,9.20
2015,06,10,01,43,9.20
2015,06,10,01,44,9.20
2015,06,10,01,45,9.20
2015,06,10,01,46,9.20
2015,06,10,01,47,9.20
2015,06,10,01,48,9.20
2015,06,10,01,49,9.20
2015,06,10,01,50,9.20
2015,06,10,01,51,9.10
2015,06,10,01,52,9.10
2015,06,10,01,53,9.10
2015,06,10,01,54,9.10
2015,06,10,01,55,9.10
2015,06,10,01,56,9.10
2015,06,10,01,57,9.10
2015,06,10,01,58,9.10
2015,06,10,01,59,9.10
2015,06,10,02,00,9.10
2015,06,10,02,01,9.10
2015,06,10,02,02,9.00
2015,06,10,02,03,9.00
2015,06,10,02,04,9.00
2015,06,10,02,05,8.90
2015,06,10,02,06,8.90
2015,06,10,02,07,8.90
2015,06,10,02,08,8.90
2015,06,10,02,09,8.90
2015,06,10,02,10,8.80
2015,06,10,02,11,8.80
2015,06,10,02,12,8.80
2015,06,10,02,13,8.80
2015,06,10,02,14,8.80
2015,06,10,02,15,8.70
2015,06,10,02,16,8.70
2015,06,10,02,17,8.70
2015,06,10,02,18,8.70
2015,06,10,02,19,8.60
2015,06,10,02,20,8.60
2015,06,10,02,21,8.60
2015,06,10,02,22,8.60
2015,06,10,02,23,8.50
2015,06,10,02,24,8.50
2015,06,10,02,25,8.50
2015,06,10,02,26,8.50
2015,06,10,02,27,8.50
2015,06,10,02,28,8.50
2015,06,10,02,29,8.50
2015,06,10,02,30,8.50
2015,06,10,02,31,8.40
2015,06,10,02,32,8.40
2015,06,10,02,33,8.40
2015,06,10,02,34,8.40
2015,06,10,02,35,8.40
2015,06,10,02,36,8.40
2015,06,10,02,37,8.40
2015,06,10,02,38,8.40
2015,06,10,02,39,8.40
2015,06,10,02,40,8.40
2015,06,10,02,41,8.40
2015,06,10,02,42,8.40
2015,06,10,02,43,8.40
2015,06,10,02,44,8.40
2015,06,10,02,45,8.40
2015,06,10,02,46,8.40
2015,06,10,02,47,8.40
2015,06,10,02,48,8.40
2015,06,10,02,49,8.40
2015,06,10,02,50,8.40
2015,06,10,02,51,8.40
2015,06,10,02,52,8.40
2015,06,10,02,53,8.40
2015,06,10,02,54,8.40
2015,06,10,02,55,8.40
2015,06,10,02,56,8.40
2015,06,10,02,57,8.30
2015,06,10,02,58,8.30
2015,06,10,02,59,8.30
2015,06,10,03,00,8.30
2015,06,10,03,01,8.30
2015,06,10,03,02,8.30
2015,06,10,03,03,8.30
2015,06,10,03,04,8.30
2015,06,10,03,05,8.30
2015,06,10,03,06,8.20
2015,06,10,03,07,8.20
2015,06,10,03,08,8.20
2015,06,10,03,09,8.20
2015,06,10,03,10,8.20
2015,06,10,03,11,8.20
2015,06,10,03,12,8.20
2015,06,10,03,13,8.20
2015,06,10,03,14,8.10
2015,06,10,03,15,8.10
2015,06,10,03,16,8.10
2015,06,10,03,17,8.10
2015,06,10,03,18,8.10
2015,06,10,03,19,8.10
2015,06,10,03,20,8.10
2015,06,10,03,21,8.10
2015,06,10,03,22,8.00
2015,06,10,03,23,8.00
2015,06,10,03,24,8.00
2015,06,10,03,25,8.00
2015,06,10,03,26,8.00
2015,06,10,03,27,8.00
2015,06,10,03,28,8.00
2015,06,10,03,29,7.90
2015,06,10,03,30,7.90
2015,06,10,03,31,7.90
2015,06,10,03,32,7.90
2015,06,10,03,33,7.90
2015,06,10,03,34,7.90
2015,06,10,03,35,7.90
2015,06,10,03,36,7.90
2015,06,10,03,37,7.90
2015,06,10,03,38,7.90
2015,06,10,03,39,7.90
2015,06,10,03,40,7.80
2015,06,10,03,41,7.80
2015,06,10,03,42,7.80
2015,06,10,03,43,7.80
2015,06,10,03,44,7.80
2015,06,10,03,45,7.80
2015,06,10,03,46,7.80
2015,06,10,03,47,7.80
2015,06,10,03,48,7.80
2015,06,10,03,49,7.80
2015,06,10,03,50,7.80
2015,06,10,03,51,7.70
2015,06,10,03,52,7.70
2015,06,10,03,53,7.70
2015,06,10,03,54,7.70
2015,06,10,03,55,7.70
2015,06,10,03,56,7.70
2015,06,10,03,57,7.70
2015,06,10,03,58,7.70
2015,06,10,03,59,7.70
2015,06,10,04,00,7.70
2015,06,10,04,01,7.70
2015,06,10,04,02,7.70
2015,06,10,04,03,7.70
2015,06,10,04,04,7.70
2015,06,10,04,05,7.70
2015,06,10,04,06,7.70
2015,06,10,04,07,7.70
2015,06,10,04,08,7.60
2015,06,10,04,09,7.60
2015,06,10,04,10,7.60
2015,06,10,04,11,7.60
2015,06,10,04,12,7.60
2015,06,10,04,13,7.60
2015,06,10,04,14,7.60
2015,06,10,04,15,7.60
2015,06,10,04,16,7.60
2015,06,10,04,17,7.60
2015,06,10,04,18,7.60
2015,06,10,04,19,7.60
2015,06,10,04,20,7.60
2015,06,10,04,21,7.60
2015,06,10,04,22,7.60
2015,06,10,04,23,7.60
2015,06,10,04,24,7.60
2015,06,10,04,25,7.60
2015,06,10,04,26,7.60
2015,06,10,04,27,7.50
2015,06,10,04,28,7.50
2015,06,10,04,29,7.50
2015,06,10,04,30,7.50
2015,06,10,04,31,7.50
2015,06,10,04,32,7.50
2015,06,10,04,33,7.40
2015,06,10,04,34,7.40
2015,06,10,04,35,7.40
2015,06,10,04,36,7.40
2015,06,10,04,37,7.40
2015,06,10,04,38,7.40
2015,06,10,04,39,7.40
2015,06,10,04,40,7.40
2015,06,10,04,41,7.40
2015,06,10,04,42,7.40
2015,06,10,04,43,7.40
2015,06,10,04,44,7.30
2015,06,10,04,45,7.30
2015,06,10,04,46,7.30
2015,06,10,04,47,7.30
2015,06,10,04,48,7.30
2015,06,10,04,49,7.30
2015,06,10,04,50,7.30
2015,06,10,04,51,7.30
2015,06,10,04,52,7.30
2015,06,10,04,53,7.30
2015,06,10,04,54,7.30
2015,06,10,04,55,7.30
2015,06,10,04,56,7.20
2015,06,10,04,57,7.20
2015,06,10,04,58,7.20
2015,06,10,04,59,7.20
2015,06,10,05,00,7.20
2015,06,10,05,01,7.20
2015,06,10,05,02,7.20
2015,06,10,05,03,7.20
2015,06,10,05,04,7.20
2015,06,10,05,05,7.20
2015,06,10,05,06,7.20
2015,06,10,05,07,7.20
2015,06,10,05,08,7.20
2015,06,10,05,09,7.20
2015,06,10,05,10,7.20
2015,06,10,05,11,7.10
2015,06,10,05,12,7.10
2015,06,10,05,13,7.10
2015,06,10,05,14,7.10
2015,06,10,05,15,7.10
2015,06,10,05,16,7.10
2015,06,10,05,17,7.10
2015,06,10,05,18,7.10
2015,06,10,05,19,7.10
2015,06,10,05,20,7.10
2015,06,10,05,21,7.10
2015,06,10,05,22,7.10
2015,06,10,05,23,7.10
2015,06,10,05,24,7.00
2015,06,10,05,25,7.00
2015,06,10,05,26,7.00
2015,06,10,05,27,7.00
2015,06,10,05,28,7.00
2015,06,10,05,29,7.00
2015,06,10,05,30,7.00
2015,06,10,05,31,7.00
2015,06,10,05,32,7.00
2015,06,10,05,33,7.00
2015,06,10,05,34,7.00
2015,06,10,05,35,7.00
2015,06,10,05,36,7.00
2015,06,10,05,37,7.00
2015,06,10,05,38,7.00
2015,06,10,05,39,7.00
2015,06,10,05,40,7.10
2015,06,10,05,41,7.10
2015,06,10,05,42,7.10
2015,06,10,05,43,7.10
2015,06,10,05,44,7.10
2015,06,10,05,45,7.10
2015,06,10,05,46,7.10
2015,06,10,05,47,7.10
2015,06,10,05,48,7.10
2015,06,10,05,49,7.10
2015,06,10,05,50,7.10
2015,06,10,05,51,7.10
2015,06,10,05,52,7.20
2015,06,10,05,53,7.20
2015,06,10,05,54,7.20
2015,06,10,05,55,7.20
2015,06,10,05,56,7.20
2015,06,10,05,57,7.20
2015,06,10,05,58,7.20
2015,06,10,05,59,7.20
2015,06,10,06,00,7.30
2015,06,10,06,01,7.30
2015,06,10,06,02,7.30
2015,06,10,06,03,7.30
2015,06,10,06,04,7.30
2015,06,10,06,05,7.30
2015,06,10,06,06,7.30
2015,06,10,06,07,7.30
2015,06,10,06,08,7.30
2015,06,10,06,09,7.30
2015,06,10,06,10,7.30
2015,06,10,06,11,7.30
2015,06,10,06,12,7.30
2015,06,10,06,13,7.30
2015,06,10,06,14,7.30
2015,06,10,06,15,7.30
2015,06,10,06,16,7.30
2015,06,10,06,17,7.30
2015,06,10,06,18,7.30
2015,06,10,06,19,7.40
2015,06,10,06,20,7.40
2015,06,10,06,21,7.40
2015,06,10,06,22,7.40
2015,06,10,06,23,7.50
2015,06,10,06,24,7.50
2015,06,10,06,25,7.50
2015,06,10,06,26,7.60
2015,06,10,06,27,7.60
2015,06,10,06,28,7.60
2015,06,10,06,29,7.70
2015,06,10,06,30,7.70
2015,06,10,06,31,7.70
2015,06,10,06,32,7.80
2015,06,10,06,33,7.80
2015,06,10,06,34,7.80
2015,06,10,06,35,7.90
2015,06,10,06,36,8.00
2015,06,10,06,37,8.10
2015,06,10,06,38,8.10
2015,06,10,06,39,8.20
2015,06,10,06,40,8.20
2015,06,10,06,41,8.30
2015,06,10,06,42,8.30
2015,06,10,06,43,8.30
2015,06,10,06,44,8.40
2015,06,10,06,45,8.40
2015,06,10,06,46,8.50
2015,06,10,06,47,8.60
2015,06,10,06,48,8.60
2015,06,10,06,49,8.70
2015,06,10,06,50,8.80
2015,06,10,06,51,8.80
2015,06,10,06,52,8.90
2015,06,10,06,53,9.00
2015,06,10,06,54,9.00
2015,06,10,06,55,9.10
2015,06,10,06,56,9.20
2015,06,10,06,57,9.20
2015,06,10,06,58,9.30
2015,06,10,06,59,9.40
2015,06,10,07,00,9.40
2015,06,10,07,01,9.50
2015,06,10,07,02,9.60
2015,06,10,07,03,9.60
2015,06,10,07,04,9.70
2015,06,10,07,05,9.70
2015,06,10,07,06,9.80
2015,06,10,07,07,9.80
2015,06,10,07,08,9.90
2015,06,10,07,09,9.90
2015,06,10,07,10,10.00
2015,06,10,07,11,10.00
2015,06,10,07,12,10.10
2015,06,10,07,13,10.10
2015,06,10,07,14,10.20
2015,06,10,07,15,10.20
2015,06,10,07,16,10.20
2015,06,10,07,17,10.30
2015,06,10,07,18,10.30
2015,06,10,07,19,10.30
2015,06,10,07,20,10.30
2015,06,10,07,21,10.30
2015,06,10,07,22,10.30
2015,06,10,07,23,10.40
2015,06,10,07,24,10.40
2015,06,10,07,25,10.40
2015,06,10,07,26,10.40
2015,06,10,07,27,10.40
2015,06,10,07,28,10.50
2015,06,10,07,29,10.50
2015,06,10,07,30,10.50
2015,06,10,07,31,10.50
2015,06,10,07,32,10.60
2015,06,10,07,33,10.60
2015,06,10,07,34,10.60
2015,06,10,07,35,10.60
2015,06,10,07,36,10.60
2015,06,10,07,37,10.60
2015,06,10,07,38,10.60
2015,06,10,07,39,10.60
2015,06,10,07,40,10.60
2015,06,10,07,41,10.60
2015,06,10,07,42,10.70
2015,06,10,07,43,10.70
2015,06,10,07,44,10.70
2015,06,10,07,45,10.80
2015,06,10,07,46,10.80
2015,06,10,07,47,10.80
2015,06,10,07,48,10.90
2015,06,10,07,49,10.90
2015,06,10,07,50,10.90
2015,06,10,07,51,10.90
2015,06,10,07,52,11.00
2015,06,10,07,53,11.00
2015,06,10,07,54,11.10
2015,06,10,07,55,11.10
2015,06,10,07,56,11.10
2015,06,10,07,57,11.10
2015,06,10,07,58,11.10
2015,06,10,07,59,11.10
2015,06,10,08,00,11.10
2015,06,10,08,01,11.10
2015,06,10,08,02,11.10
2015,06,10,08,03,11.10
2015,06,10,08,04,11.10
2015,06,10,08,05,11.10
2015,06,10,08,06,11.10
2015,06,10,08,07,11.10
2015,06,10,08,08,11.10
2015,06,10,08,09,11.10
2015,06,10,08,10,11.20
2015,06,10,08,11,11.20
2015,06,10,08,12,11.20
2015,06,10,08,13,11.20
2015,06,10,08,14,11.20
2015,06,10,08,15,11.20
2015,06,10,08,16,11.30
2015,06,10,08,17,11.30
2015,06,10,08,18,11.30
2015,06,10,08,19,11.30
2015,06,10,08,20,11.30
2015,06,10,08,21,11.30
2015,06,10,08,22,11.30
2015,06,10,08,23,11.30
2015,06,10,08,24,11.30
2015,06,10,08,25,11.40
2015,06,10,08,26,11.40
2015,06,10,08,27,11.40
2015,06,10,08,28,11.50
2015,06,10,08,29,11.50
2015,06,10,08,30,11.50
2015,06,10,08,31,11.50
2015,06,10,08,32,11.50
2015,06,10,08,33,11.50
2015,06,10,08,34,11.50
2015,06,10,08,35,11.50
2015,06,10,08,36,11.60
2015,06,10,08,37,11.60
2015,06,10,08,38,11.70
2015,06,10,08,39,11.70
2015,06,10,08,40,11.70
2015,06,10,08,41,11.60
2015,06,10,08,42,11.60
2015,06,10,08,43,11.60
2015,06,10,08,44,11.60
2015,06,10,08,45,11.70
2015,06,10,08,46,11.70
2015,06,10,08,47,11.70
2015,06,10,08,48,11.80
2015,06,10,08,49,11.80
2015,06,10,08,50,11.90
2015,06,10,08,51,11.90
2015,06,10,08,52,12.00
2015,06,10,08,53,12.10
2015,06,10,08,54,12.10
2015,06,10,08,55,12.20
2015,06,10,08,56,12.20
2015,06,10,08,57,12.20
2015,06,10,08,58,12.20
2015,06,10,08,59,12.30
2015,06,10,09,00,12.30
2015,06,10,09,01,12.30
2015,06,10,09,02,12.40
2015,06,10,09,03,12.40
2015,06,10,09,04,12.40
2015,06,10,09,05,12.40
2015,06,10,09,06,12.50
2015,06,10,09,07,12.50
2015,06,10,09,08,12.50
2015,06,10,09,09,12.40
2015,06,10,09,10,12.50
2015,06,10,09,11,12.40
2015,06,10,09,12,12.40
2015,06,10,09,13,12.40
2015,06,10,09,14,12.30
2015,06,10,09,15,12.30
2015,06,10,09,16,12.30
2015,06,10,09,17,12.30
2015,06,10,09,18,12.30
2015,06,10,09,19,12.30
2015,06,10,09,20,12.30
2015,06,10,09,21,12.30
2015,06,10,09,22,12.30
2015,06,10,09,23,12.30
2015,06,10,09,24,12.30
2015,06,10,09,25,12.30
2015,06,10,09,26,12.20
2015,06,10,09,27,12.20
2015,06,10,09,28,12.20
2015,06,10,09,29,12.20
2015,06,10,09,30,12.20
2015,06,10,09,31,12.20
2015,06,10,09,32,12.20
2015,06,10,09,33,12.20
2015,06,10,09,34,12.20
2015,06,10,09,35,12.30
2015,06,10,09,36,12.30
2015,06,10,09,37,12.30
2015,06,10,09,38,12.30
2015,06,10,09,39,12.40
2015,06,10,09,40,12.40
2015,06,10,09,41,12.40
2015,06,10,09,42,12.40
2015,06,10,09,43,12.40
2015,06,10,09,44,12.40
2015,06,10,09,45,12.30
2015,06,10,09,46,12.40
2015,06,10,09,47,12.40
2015,06,10,09,48,12.40
2015,06,10,09,49,12.50
2015,06,10,09,50,12.60
2015,06,10,09,51,12.60
2015,06,10,09,52,12.70
2015,06,10,09,53,12.70
2015,06,10,09,54,12.70
2015,06,10,09,55,12.70
2015,06,10,09,56,12.80
2015,06,10,09,57,12.90
2015,06,10,09,58,12.90
2015,06,10,09,59,12.90
2015,06,10,10,00,12.90
2015,06,10,10,01,12.90
2015,06,10,10,02,13.00
2015,06,10,10,03,13.10
2015,06,10,10,04,13.10
2015,06,10,10,05,13.10
2015,06,10,10,06,13.10
2015,06,10,10,07,13.10
2015,06,10,10,08,13.20
2015,06,10,10,09,13.20
2015,06,10,10,10,13.20
2015,06,10,10,11,13.20
2015,06,10,10,12,13.20
2015,06,10,10,13,13.10
2015,06,10,10,14,13.10
2015,06,10,10,15,13.10
2015,06,10,10,16,13.10
2015,06,10,10,17,13.10
2015,06,10,10,18,13.10
2015,06,10,10,19,13.10
2015,06,10,10,20,13.10
2015,06,10,10,21,13.20
2015,06,10,10,22,13.20
2015,06,10,10,23,13.30
2015,06,10,10,24,13.30
2015,06,10,10,25,13.30
2015,06,10,10,26,13.30
2015,06,10,10,27,13.20
2015,06,10,10,28,13.20
2015,06,10,10,29,13.20
2015,06,10,10,30,13.20
2015,06,10,10,31,13.20
2015,06,10,10,32,13.20
2015,06,10,10,33,13.30
2015,06,10,10,34,13.30
2015,06,10,10,35,13.30
2015,06,10,10,36,13.30
2015,06,10,10,37,13.30
2015,06,10,10,38,13.30
2015,06,10,10,39,13.30
2015,06,10,10,40,13.30
2015,06,10,10,41,13.40
2015,06,10,10,42,13.50
2015,06,10,10,43,13.50
2015,06,10,10,44,13.60
2015,06,10,10,45,13.60
2015,06,10,10,46,13.60
2015,06,10,10,47,13.70
2015,06,10,10,48,13.70
2015,06,10,10,49,13.80
2015,06,10,10,50,13.80
2015,06,10,10,51,13.80
2015,06,10,10,52,13.80
2015,06,10,10,53,13.90
2015,06,10,10,54,13.90
2015,06,10,10,55,14.00
2015,06,10,10,56,14.10
2015,06,10,10,57,14.10
2015,06,10,10,58,14.10
2015,06,10,10,59,14.20
2015,06,10,11,00,14.30
2015,06,10,11,01,14.40
2015,06,10,11,02,14.40
2015,06,10,11,03,14.50
2015,06,10,11,04,14.50
2015,06,10,11,05,14.50
2015,06,10,11,06,14.50
2015,06,10,11,07,14.60
2015,06,10,11,08,14.70
2015,06,10,11,09,14.80
2015,06,10,11,10,14.80
2015,06,10,11,11,14.80
2015,06,10,11,12,14.90
2015,06,10,11,13,14.80
2015,06,10,11,14,14.80
2015,06,10,11,15,14.80
2015,06,10,11,16,14.80
2015,06,10,11,17,14.90
2015,06,10,11,18,15.00
2015,06,10,11,19,15.00
2015,06,10,11,20,15.10
2015,06,10,11,21,15.10
2015,06,10,11,22,15.10
2015,06,10,11,23,15.10
2015,06,10,11,24,15.10
2015,06,10,11,25,15.10
2015,06,10,11,26,15.10
2015,06,10,11,27,15.10
2015,06,10,11,28,15.10
2015,06,10,11,29,15.10
2015,06,10,11,30,15.10
2015,06,10,11,31,15.10
2015,06,10,11,32,15.10
2015,06,10,11,33,15.10
2015,06,10,11,34,15.20
2015,06,10,11,35,15.30
2015,06,10,11,36,15.30
2015,06,10,11,37,15.40
2015,06,10,11,38,15.60
2015,06,10,11,39,15.60
2015,06,10,11,40,15.70
2015,06,10,11,41,15.70
2015,06,10,11,42,15.70
2015,06,10,11,43,15.80
2015,06,10,11,44,15.90
2015,06,10,11,45,16.00
2015,06,10,11,46,16.00
2015,06,10,11,47,16.10
2015,06,10,11,48,16.20
2015,06,10,11,49,16.30
2015,06,10,11,50,16.30
2015,06,10,11,51,16.30
2015,06,10,11,52,16.30
2015,06,10,11,53,16.40
2015,06,10,11,54,16.50
2015,06,10,11,55,16.50
2015,06,10,11,56,16.60
2015,06,10,11,57,16.70
2015,06,10,11,58,16.70
2015,06,10,11,59,16.70
2015,06,10,12,00,16.70
2015,06,10,12,01,16.70
2015,06,10,12,02,16.80
2015,06,10,12,03,16.80
2015,06,10,12,04,16.90
2015,06,10,12,05,17.00
2015,06,10,12,06,17.10
2015,06,10,12,07,17.10
2015,06,10,12,08,17.20
2015,06,10,12,09,17.30
2015,06,10,12,10,17.30
2015,06,10,12,11,17.40
2015,06,10,12,12,17.50
2015,06,10,12,13,17.60
2015,06,10,12,14,17.60
2015,06,10,12,15,17.70
2015,06,10,12,16,17.70
2015,06,10,12,17,17.60
2015,06,10,12,18,17.60
2015,06,10,12,19,17.70
2015,06,10,12,20,17.70
2015,06,10,12,21,17.80
2015,06,10,12,22,17.90
2015,06,10,12,23,17.90
2015,06,10,12,24,17.80
2015,06,10,12,25,17.70
2015,06,10,12,26,17.60
2015,06,10,12,27,17.40
2015,06,10,12,28,17.20
2015,06,10,12,29,17.00
2015,06,10,12,30,16.90
2015,06,10,12,31,16.80
2015,06,10,12,32,16.70
2015,06,10,12,33,16.70
2015,06,10,12,34,16.70
2015,06,10,12,35,16.70
2015,06,10,12,36,16.60
2015,06,10,12,37,16.60
2015,06,10,12,38,16.50
2015,06,10,12,39,16.50
2015,06,10,12,40,16.60
2015,06,10,12,41,16.60
2015,06,10,12,42,16.50
2015,06,10,12,43,16.50
2015,06,10,12,44,16.40
2015,06,10,12,45,16.40
2015,06,10,12,46,16.40
2015,06,10,12,47,16.40
2015,06,10,12,48,16.50
2015,06,10,12,49,16.50
2015,06,10,12,50,16.50
2015,06,10,12,51,16.50
2015,06,10,12,52,16.50
2015,06,10,12,53,16.40
2015,06,10,12,54,16.40
2015,06,10,12,55,16.40
2015,06,10,12,56,16.40
2015,06,10,12,57,16.40
2015,06,10,12,58,16.40
2015,06,10,12,59,16.40
2015,06,10,13,00,16.40
2015,06,10,13,01,16.50
2015,06,10,13,02,16.50
2015,06,10,13,03,16.50
2015,06,10,13,04,16.60
2015,06,10,13,05,16.60
2015,06,10,13,06,16.60
2015,06,10,13,07,16.60
2015,06,10,13,08,16.60
2015,06,10,13,09,16.70
2015,06,10,13,10,16.70
2015,06,10,13,11,16.70
2015,06,10,13,12,16.60
2015,06,10,13,13,16.50
2015,06,10,13,14,16.50
2015,06,10,13,15,16.40
2015,06,10,13,16,16.40
2015,06,10,13,17,16.50
2015,06,10,13,18,16.50
2015,06,10,13,19,16.60
2015,06,10,13,20,16.70
2015,06,10,13,21,16.80
2015,06,10,13,22,16.80
2015,06,10,13,23,16.80
2015,06,10,13,24,16.80
2015,06,10,13,25,16.80
2015,06,10,13,26,16.80
2015,06,10,13,27,16.90
2015,06,10,13,28,17.00
2015,06,10,13,29,17.00
2015,06,10,13,30,17.00
2015,06,10,13,31,16.90
2015,06,10,13,32,16.90
2015,06,10,13,33,16.90
2015,06,10,13,34,16.90
2015,06,10,13,35,16.90
2015,06,10,13,36,16.80
2015,06,10,13,37,16.90
2015,06,10,13,38,16.90
2015,06,10,13,39,16.90
2015,06,10,13,40,16.90
2015,06,10,13,41,17.00
2015,06,10,13,42,17.00
2015,06,10,13,43,17.10
2015,06,10,13,44,17.10
2015,06,10,13,45,17.10
2015,06,10,13,46,17.10
2015,06,10,13,47,17.10
2015,06,10,13,48,17.10
2015,06,10,13,49,17.10
2015,06,10,13,50,17.10
2015,06,10,13,51,17.10
2015,06,10,13,52,17.10
2015,06,10,13,53,17.10
2015,06,10,13,54,17.00
2015,06,10,13,55,16.90
2015,06,10,13,56,16.90
2015,06,10,13,57,16.90
2015,06,10,13,58,16.80
2015,06,10,13,59,16.80
2015,06,10,14,00,16.70
2015,06,10,14,01,16.80
2015,06,10,14,02,16.80
2015,06,10,14,03,16.90
2015,06,10,14,04,17.00
2015,06,10,14,05,17.10
2015,06,10,14,06,17.10
2015,06,10,14,07,17.10
2015,06,10,14,08,17.20
2015,06,10,14,09,17.30
2015,06,10,14,10,17.30
2015,06,10,14,11,17.30
2015,06,10,14,12,17.20
2015,06,10,14,13,17.20
2015,06,10,14,14,17.20
2015,06,10,14,15,17.20
2015,06,10,14,16,17.30
2015,06,10,14,17,17.30
2015,06,10,14,18,17.30
2015,06,10,14,19,17.20
2015,06,10,14,20,17.20
2015,06,10,14,21,17.10
2015,06,10,14,22,17.00
2015,06,10,14,23,16.90
2015,06,10,14,24,16.90
2015,06,10,14,25,16.80
2015,06,10,14,26,16.80
2015,06,10,14,27,16.70
2015,06,10,14,28,16.50
2015,06,10,14,29,16.40
2015,06,10,14,30,16.20
2015,06,10,14,31,16.10
2015,06,10,14,32,16.00
2015,06,10,14,33,15.90
2015,06,10,14,34,15.70
2015,06,10,14,35,15.60
2015,06,10,14,36,15.50
2015,06,10,14,37,15.40
2015,06,10,14,38,15.30
2015,06,10,14,39,15.20
2015,06,10,14,40,15.20
2015,06,10,14,41,15.20
2015,06,10,14,42,15.20
2015,06,10,14,43,15.20
2015,06,10,14,44,15.30
2015,06,10,14,45,15.30
2015,06,10,14,46,15.40
2015,06,10,14,47,15.40
2015,06,10,14,48,15.40
2015,06,10,14,49,15.50
2015,06,10,14,50,15.60
2015,06,10,14,51,15.60
2015,06,10,14,52,15.60
2015,06,10,14,53,15.60
2015,06,10,14,54,15.70
2015,06,10,14,55,15.70
2015,06,10,14,56,15.70
2015,06,10,14,57,15.70
2015,06,10,14,58,15.70
2015,06,10,14,59,15.70
2015,06,10,15,00,15.70
2015,06,10,15,01,15.70
2015,06,10,15,02,15.70
2015,06,10,15,03,15.70
2015,06,10,15,04,15.70
2015,06,10,15,05,15.70
2015,06,10,15,06,15.70
2015,06,10,15,07,15.70
2015,06,10,15,08,15.60
2015,06,10,15,09,15.60
2015,06,10,15,10,15.50
2015,06,10,15,11,15.50
2015,06,10,15,12,15.50
2015,06,10,15,13,15.40
2015,06,10,15,14,15.40
2015,06,10,15,15,15.30
2015,06,10,15,16,15.30
2015,06,10,15,17,15.30
2015,06,10,15,18,15.30
2015,06,10,15,19,15.30
2015,06,10,15,20,15.30
2015,06,10,15,21,15.30
2015,06,10,15,22,15.30
2015,06,10,15,23,15.30
2015,06,10,15,24,15.30
2015,06,10,15,25,15.30
2015,06,10,15,26,15.30
2015,06,10,15,27,15.30
2015,06,10,15,28,15.40
2015,06,10,15,29,15.40
2015,06,10,15,30,15.40
2015,06,10,15,31,15.40
2015,06,10,15,32,15.30
2015,06,10,15,33,15.20
2015,06,10,15,34,15.20
2015,06,10,15,35,15.10
2015,06,10,15,36,15.00
2015,06,10,15,37,15.00
2015,06,10,15,38,15.00
2015,06,10,15,39,15.00
2015,06,10,15,40,15.00
2015,06,10,15,41,15.00
2015,06,10,15,42,15.00
2015,06,10,15,43,15.00
2015,06,10,15,44,15.00
2015,06,10,15,45,15.10
2015,06,10,15,46,15.10
2015,06,10,15,47,15.20
2015,06,10,15,48,15.20
2015,06,10,15,49,15.30
2015,06,10,15,50,15.30
2015,06,10,15,51,15.40
2015,06,10,15,52,15.50
2015,06,10,15,53,15.60
2015,06,10,15,54,15.80
2015,06,10,15,55,16.00
2015,06,10,15,56,16.10
2015,06,10,15,57,16.20
2015,06,10,15,58,16.20
2015,06,10,15,59,16.30
2015,06,10,16,00,16.40
2015,06,10,16,01,16.50
2015,06,10,16,02,16.50
2015,06,10,16,03,16.70
2015,06,10,16,04,16.80
2015,06,10,16,05,16.90
2015,06,10,16,06,17.10
2015,06,10,16,07,17.20
2015,06,10,16,08,17.30
2015,06,10,16,09,17.40
2015,06,10,16,10,17.60
2015,06,10,16,11,17.70
2015,06,10,16,12,17.90
2015,06,10,16,13,18.00
2015,06,10,16,14,18.10
2015,06,10,16,15,18.20
2015,06,10,16,16,18.30
2015,06,10,16,17,18.40
2015,06,10,16,18,18.60
2015,06,10,16,19,18.70
2015,06,10,16,20,18.90
2015,06,10,16,21,19.00
2015,06,10,16,22,19.00
2015,06,10,16,23,19.10
2015,06,10,16,24,19.10
2015,06,10,16,25,19.20
2015,06,10,16,26,19.30
2015,06,10,16,27,19.70
2015,06,10,16,28,20.10
2015,06,10,16,29,20.40
2015,06,10,16,30,20.70
2015,06,10,16,31,21.10
2015,06,10,16,32,21.40
2015,06,10,16,33,21.70
2015,06,10,16,34,21.90
2015,06,10,16,35,22.00
2015,06,10,16,36,22.10
2015,06,10,16,37,22.10
2015,06,10,16,38,22.20
2015,06,10,16,39,22.20
2015,06,10,16,40,22.20
2015,06,10,16,41,22.20
2015,06,10,16,42,22.10
2015,06,10,16,43,22.00
2015,06,10,16,44,22.00
2015,06,10,16,45,22.00
2015,06,10,16,46,22.00
2015,06,10,16,47,22.00
2015,06,10,16,48,22.00
2015,06,10,16,49,22.00
2015,06,10,16,50,22.00
2015,06,10,16,51,22.00
2015,06,10,16,52,22.00
2015,06,10,16,53,22.00
2015,06,10,16,54,22.10
2015,06,10,16,55,22.10
2015,06,10,16,56,22.10
2015,06,10,16,57,22.10
2015,06,10,16,58,22.10
2015,06,10,16,59,22.00
2015,06,10,17,00,22.00
2015,06,10,17,01,22.00
2015,06,10,17,02,21.80
2015,06,10,17,03,21.70
2015,06,10,17,04,21.60
2015,06,10,17,05,21.50
2015,06,10,17,06,21.40
2015,06,10,17,07,21.30
2015,06,10,17,08,21.30
2015,06,10,17,09,21.20
2015,06,10,17,10,21.20
2015,06,10,17,11,21.30
2015,06,10,17,12,21.30
2015,06,10,17,13,21.30
2015,06,10,17,14,21.20
2015,06,10,17,15,21.20
2015,06,10,17,16,21.30
2015,06,10,17,17,21.40
2015,06,10,17,18,21.40
2015,06,10,17,19,21.50
2015,06,10,17,20,21.60
2015,06,10,17,21,21.70
2015,06,10,17,22,21.70
2015,06,10,17,23,21.80
2015,06,10,17,24,21.80
2015,06,10,17,25,21.90
2015,06,10,17,26,21.90
2015,06,10,17,27,21.90
2015,06,10,17,28,21.90
2015,06,10,17,29,21.90
2015,06,10,17,30,21.90
2015,06,10,17,31,21.90
2015,06,10,17,32,21.90
2015,06,10,17,33,21.90
2015,06,10,17,34,21.80
2015,06,10,17,35,21.80